Flag Weather past 2 weeks in Mudgee, New South Wales, Australia

Now
76 °F

Mild.


Feels Like: 78 °F
Forecast: 55 / 76 °F
Wind: 8 mph from Southeast

Location: Mudgee Aws

Current Time: Nov 27, 2014 at 3:35:54 PM

Latest Report: Nov 27, 2014 at 1:00 PM


Visibility: N/A

Pressure: 30.06 "Hg

Humidity: 47%

Dew point: 54 °F

Location of MudgeeLocation

Historic Weather in Mudgee — Graph

°F

Mudgee temperature yesterday

Maximum temperature yesterday: 85 °F (at 4:00 PM)
Minimum temperature yesterday: 57 °F (at 1:00 AM)
Average temperature yesterday: 71 °F

Past Weeks' High & Low Weather Summary

 TemperatureHumidityPressure
High105 °F (Nov 23, 3:00 PM)99% (Nov 25, 3:00 AM)30.11 "Hg (Nov 25, 3:00 AM)
Low43 °F (Nov 18, 6:00 AM)11% (Nov 23, 3:00 PM)29.70 "Hg (Nov 15, 4:00 PM)
Average74 °F46%29.91 "Hg
* Reported Nov 12 1:00 PM — Nov 27 1:00 PM, Mudgee, Weather by CustomWeather, © 2014

Note: Actual official high and low records may vary slightly from our data, if they occured in-between our weather recording intervals... More about our weather records

Advertising

Mudgee weather history for previous 24 hours

 ConditionsComfort  
Time TempWeatherWind HumidityBarometerVisibility
1:00 PM
Nov 27
76 °FMild.8 mph47%30.06 "HgN/A
12:00 PM76 °FOvercast.10 mph48%30.07 "HgN/A
10:00 AM72 °FMild.13 mph56%30.09 "HgN/A
9:00 AM70 °FOvercast.10 mph60%30.09 "HgN/A
7:00 AM65 °FMild.7 mph77%30.06 "HgN/A
6:00 AM62 °FOvercast.1 mph83%30.04 "HgN/A
4:00 AM65 °FMild.9 mph74%30.00 "HgN/A
3:00 AM65 °FMild.9 mph78%30.00 "HgN/A
1:00 AM63 °FMild.5 mph71%30.01 "HgN/A
12:00 AM63 °FMild.1 mph55%30.02 "HgN/A
10:00 PM
Nov 26
72 °FMild.7 mph26%29.99 "HgN/A
9:00 PM74 °FMild.7 mph26%29.98 "HgN/A
7:00 PM83 °FPleasantly warm.9 mph20%29.93 "HgN/A
6:00 PM85 °FPleasantly warm.12 mph20%29.92 "HgN/A
4:00 PM85 °FPleasantly warm.15 mph27%29.93 "HgN/A
3:00 PM83 °FPleasantly warm.13 mph31%29.95 "HgN/A
Weather by CustomWeather, © 2014

See weather overviewHow to use our weather pages